Orbital Elements at Epoch 2459200.5 (2020-Dec-17.0) TDB
Reference: JPL 24 (heliocentric ecliptic J2000)
Element | Value | Uncertainty (1-sigma) | Units |
e | .065348974220793 | 3.9652e-08 | |
a | 2.635460119650928 | 1.3328e-08 | au |
q | 2.463235504231931 | 1.0803e-07 | au |
i | 6.504346550356108 | 3.8842e-06 | deg |
node | 109.9419600445071 | 3.394e-05 | deg |
peri | 309.7090053180331 | 4.3188e-05 | deg |
M | 7.437564284722051 | 2.6291e-05 | deg |
tp | 2459168.214216385456 (2020-Nov-14.71421639) | 0.00011417 | TDB |
period | 1562.726943431092 4.28 | 1.1855e-05 3.246e-08 | d yr |
n | .2303665406891821 | 1.7475e-09 | deg/d |
Q | 2.807684735069925 | 1.4199e-08 | au |
|
| | Orbit Determination Parameters
Additional Information
|